Regional Weather Roundup
Issued by NWS Charleston, SC

Home | Current Version | Previous Version | Text Only | Print | Product List | Glossary On
Versions: 1 2 3 4 5 6 7 8 9 10 11 12 13 14 15 16 17 18 19 20 21 22 23 24 25 26 27 28 29 30 31 32 33 34 35 36 37 38 39 40 41 42 43 44 45 46 47 48 49 50
000
ASUS42 KCHS 140813
RWRCHS

REGIONAL WEATHER ROUNDUP
NATIONAL WEATHER SERVICE CHARLESTON SC
300 AM EST SUN FEB 14 2016

NOTE: "FAIR" INDICATES FEW OR NO CLOUDS BELOW 12,000 FEET WITH NO
SIGNIFICANT WEATHER AND/OR OBSTRUCTIONS TO VISIBILITY.

NOT ALL STATIONS ARE QUALITY CONTROLLED BY THE NATIONAL
WEATHER SERVICE. USE DATA WITH CAUTION...ESPECIALLY
DEWPOINT OBSERVATIONS.

SCZ027-030-031-034>040-042>050-140900-
...SOUTHEAST SOUTH CAROLINA...

CITY           SKY/WX    TMP DP  RH WIND       PRES   REMARKS
N CHARLESTON   CLEAR     31   8  38 NE15      30.38S WCI  20
WATERFRONT PRK   N/A     35  23  61 N16       30.21F WCI  25
MOUNT PLEASANT FAIR      32  12  43 N7        30.38F WCI  26
JOHNS ISLAND   FAIR      32  16  51 N7        30.38R WCI  26
PINOPOLIS        N/A     32  12  43 NE10      30.33R WCI  24
MONCKS CORNER  FAIR      27   9  46 NE3       30.41S
SUMMERVILLE    FAIR      32  14  47 NE7       30.41S WCI  26
BEAUFORT MCAS  CLEAR     34  17  50 NE12      30.36S WCI  25
BEAUFORT ARPT  FAIR      36  21  55 NE16      30.36S WCI  26
HILTON HEAD IS CLEAR     39  28  65 N10       30.36S WCI  32
WALTERBORO     SUNNY     32  16  51 NE7       30.40S WCI  26
ALLENDALE      FAIR      32  12  43 CALM      30.38S

...SOUTHERN MIDLANDS AND PEE DEE...

CITY           SKY/WX    TMP DP  RH WIND       PRES   REMARKS
GEORGETOWN     FAIR      30   9  40 N9        30.42R WCI  22
KINGSTREE      FAIR      28   5  37 N3        30.42S
ORANGEBURG     CLEAR     29   7  39 NE7       30.41R WCI  22
BARNWELL       FAIR      32  14  47 NE9       30.40R WCI  24
AIKEN          NOT AVBL
MANNING        FAIR      28   3  34 N7        30.43R WCI  21
COLUMBIA       CLEAR     29   3  33 NE7       30.41S WCI  22
SUMTER         CLEAR     23   7  50 NE6       30.40R WCI  16
FLORENCE       CLEAR     24   6  46 NE6       30.44R WCI  17
MYRTLE BEACH   CLEAR     27   7  43 NE8       30.44R WCI  18
N MYRTLE BEACH CLEAR     27   7  42 NE9       30.41S WCI  18

$$

GAZ063-065-086>088-099>101-113>116-118-119-134>141-150-140900-
...SOUTHEAST GEORGIA...

CITY           SKY/WX    TMP DP  RH WIND       PRES   REMARKS
SAVANNAH ARPT  CLEAR     34  23  64 NE6       30.35S WCI  29
HUNTER AAF     CLEAR     37  25  61 N6        30.31S WCI  33
FORT STEWART   CLEAR     33  24  69 CALM      30.31F
STATESBORO     PTCLDY    38  14  38 NE5       30.36S WCI  34
SYLVANIA       SUNNY     34  23  64 E9        30.37S WCI  27
CLAXTON        FAIR      30  29  97 CALM      30.35S

...CSRA...CENTRAL AND FAR SOUTHEAST GEORGIA...

CITY           SKY/WX    TMP DP  RH WIND       PRES   REMARKS
THOMSON        CLEAR     32  15  49 NE7       30.41S WCI  26
AUGUSTA-BUSH   CLEAR     29  11  47 E7        30.40R WCI  22
AUGUSTA-DANIEL CLEAR     31   8  38 E10       30.38R WCI  22
SWAINSBORO     FAIR      32  18  55 NE5       30.36R WCI  27
VIDALIA        CLEAR     32  21  64 N3        30.33F
EASTMAN        FAIR      29  19  65 CALM      30.37F
HAZLEHURST     FAIR      34  21  58 N3        30.32F
ALMA           CLEAR     35  18  49 N5        30.33S WCI  31
WAYCROSS       CLEAR     38  23  55 N3        30.33S
JESUP          FAIR      39  25  56 NE5       30.33S WCI  36
BAXLEY         FAIR      36  21  55 N3        30.32F
BRUNSWICK      CLEAR     34  34 100 CALM      30.33S
SAINT SIMONS   CLEAR     39  35  86 N7        30.31F WCI  34

$$

SCZ027-028-034-036>038-045-046-048>050-GAZ119-141-140900-
...LAKE AND SUPPLEMENTAL COASTAL OBSERVATIONS...

STATION/POSITION TIME  TEMP    WIND        PRES    WAVE   SWELL
                       AIR SEA DIR/SP/G            HT/PER HT/PER/DIR
                 (UTC) (F)     (DEG/KT/KT) (MB)    (FT/S) (FT/S/D)
WINYAH BAY       NOT AVBL
LAKE MURRAY      0700   29      50/  2/  5 1029.1R
ACE BASIN NERRS  NOT AVBL
FORT PULASKI     0700   44 51   30/ 10/ 13 1027.4S
SAPELO ISLAND    0700   41        CALM     1027.0S

$$

ANZ835-935-AMZ111-154-330-350-352-354-370-450-454-472-140900-
...C-MAN AND BUOY OBSERVATIONS...

STATION/POSITION TIME  TEMP    WIND        PRES    WAVE   SWELL
                       AIR SEA DIR/SP/G            HT/PER HT/PER/DIR
                 (UTC) (F)     (DEG/KT/KT) (MB)    (FT/S) (FT/S/D)
BUOY 41004       0750   45 66   30/ 16/ 21 1027.1R   4/ 5   2/ 9
BUOY 41008       0750   49 53   70/  6/  8 1026.5F   2/ 6   2/ 70/ 6
FOLLY BEACH CMAN 0700   37      20/ 17/ 19 1028.3R
CAPERS NEARSHORE 0708   38      30/ 21/ 25 1027.5R
FRIPP NEARSHORE  0700   45      50/ 17/ 21 1026.4R


STATION/POSITION TIME  TEMP    WIND        PRES    WAVE   SWELL
                       AIR SEA DIR/SP/G            HT/PER HT/PER/DIR
                 (UTC) (F)     (DEG/KT/KT) (MB)    (FT/S) (FT/S/D)
5E ST. MARYS GA  0721      55                N/A     2/ 6
FRYING PAN BUOY  0700   38 63   10/ 19/ 25 1028.5F
BUOY 41025       0750   31 72  360/ 23/ 29 1028.4R   5/ 5   2/ 50/11
CAPE LOOKOUT NC  NOT AVBL
BUOY 41002       0750   48 68  350/ 19/ 23   N/A     8/ 8
BUOY 41010       0720   61 72              1023.7F
ST AUGUSTINE FL  0800   52 57   20/ 13/ 15 1026.0F


$$



USA.gov is the U.S. government's official web portal to all federal, state and local government web resources and services.